Weather History for KRDD - December, 2012

Change the Weather History Date:

Saturday, December 15, 2012

  Actual Average Record
Temperature  
Mean Temperature 31 °F -  
Max Temperature 35 °F 54 °F 72 °F (1998)
Min Temperature 27 °F 36 °F 26 °F (2005)
Degree Days  
Heating Degree Days 34    
Cooling Degree Days 0    
Moisture  
Dew Point 30 °F    
Average Humidity 91    
Maximum Humidity 96    
Minimum Humidity 85    
Precipitation  
Precipitation 0.21 in 0.21 in 1.47 in (2009)
Month to date precipitation 3.33 2.82  
Year to date precipitation 29.74 31.17  
Since 1 July precipitation 12.45 10.31  
Sea Level Pressure  
Sea Level Pressure 30.06 in    
Wind  
Wind Speed 1 mph (NNE)    
Max Wind Speed 7 mph    
Max Gust Speed 7 mph    
Visibility 5 miles    
Events Rain , Snow    
T = Trace of Precipitation, MM = Missing Value Source: NWS Daily Summary

Daily Weather History Graph

Daily Weather History Graph

Search for Another Location

Airport or City:

Trip Planner

Search our weather history database for the weather conditions in past years. The results will help you decide how hot, cold, wet, or windy it might be!

Date:

Astronomy

Dec. 15, 2012 Rise Set
Actual Time 7:25 AM PST 4:43 PM PST
Civil Twilight 6:55 AM PST 5:14 PM PST
Nautical Twilight 6:20 AM PST 5:48 PM PST
Astronomical Twilight 5:47 AM PST 6:21 PM PST
Moon 9:22 AM PST (12/15) 7:54 PM PST (12/15)
Length of Visible Light 10h 19m
Length of Day
9h 17m
Waxing Crescent, 9% of the Moon is Illuminated
Dec 15
Waxing Crescent
Dec 19
First Quarter
Dec 28
Full
Jan 4
Last Quarter
Jan 11
New

Hourly Weather History & Observations

Time (PST) Temp. Windchill Dew Point Humidity Pressure Visibility Wind Dir Wind Speed Gust Speed Precip Events Conditions
12:53 AM 30.0 °F 26.5 °F 28.0 °F 92% 30.04 in 8.0 mi WNW 3.5 mph - N/A   Clear
1:26 AM 28.4 °F - 26.6 °F 93% 30.03 in 1.5 mi Calm Calm - N/A   Clear
1:28 AM 28.4 °F - 26.6 °F 93% 30.03 in 0.8 mi Calm Calm - N/A   Clear
1:50 AM 28.4 °F - 26.6 °F 93% 30.03 in 2.0 mi Calm Calm - N/A   Clear
1:53 AM 28.9 °F - 27.0 °F 92% 30.03 in 5.0 mi Calm Calm - N/A   Clear
2:53 AM 28.9 °F - 27.0 °F 92% 30.03 in 6.0 mi Calm Calm - N/A   Clear
3:53 AM 28.0 °F - 25.0 °F 88% 30.02 in 7.0 mi Calm Calm - N/A   Clear
4:53 AM 28.0 °F - 26.1 °F 92% 30.03 in 6.0 mi Calm Calm - N/A   Clear
5:53 AM 28.9 °F - 26.1 °F 89% 30.04 in 8.0 mi Calm Calm - N/A   Clear
6:53 AM 30.0 °F - 28.0 °F 92% 30.04 in 10.0 mi Calm Calm - N/A   Scattered Clouds
7:53 AM 30.9 °F - 28.0 °F 89% 30.05 in 10.0 mi Calm Calm - N/A   Overcast
8:53 AM 33.1 °F - 30.0 °F 89% 30.07 in 10.0 mi Calm Calm - N/A   Overcast
9:53 AM 33.1 °F - 30.0 °F 89% 30.08 in 10.0 mi Calm Calm - 0.00 in Rain Light Rain
10:39 AM 33.8 °F - 30.2 °F 87% 30.08 in 8.0 mi Calm Calm - 0.01 in Snow Light Snow
10:53 AM 34.0 °F - 32.0 °F 92% 30.09 in 5.0 mi Calm Calm - 0.01 in Snow Light Snow
11:00 AM 35.6 °F - 32.0 °F 87% 30.07 in 3.0 mi Calm Calm - 0.01 in Snow Light Snow
11:53 AM 35.1 °F - 32.0 °F 89% 30.07 in 4.0 mi Calm Calm - 0.03 in Snow Light Snow
12:07 PM 35.6 °F - 32.0 °F 87% 30.05 in 5.0 mi Calm Calm - 0.01 in Snow Light Snow
12:53 PM 34.0 °F 29.8 °F 32.0 °F 92% 30.06 in 2.0 mi NNE 4.6 mph - 0.05 in Snow Light Snow
1:39 PM 33.8 °F - 30.2 °F 87% 30.05 in 1.0 mi Calm Calm - 0.07 in Snow Light Snow
1:53 PM 33.1 °F - 30.9 °F 92% 30.07 in 1.0 mi Calm Calm - 0.08 in Snow Light Snow
1:56 PM 33.8 °F - 30.2 °F 87% 30.06 in 1.5 mi Calm Calm - 0.01 in Snow Light Snow
2:53 PM 34.0 °F - 32.0 °F 92% 30.05 in 2.5 mi Calm Calm - 0.03 in Rain Light Rain
3:15 PM 33.8 °F - 32.0 °F 93% 30.03 in 1.8 mi Calm Calm - 0.00 in   Overcast
3:22 PM 33.8 °F - 32.0 °F 93% 30.03 in 2.5 mi Calm Calm - 0.00 in Rain Light Rain
3:51 PM 33.8 °F - 32.0 °F 93% 30.03 in 3.0 mi Calm Calm - 0.01 in Rain Light Rain
3:53 PM 34.0 °F - 32.0 °F 92% 30.05 in 3.0 mi Calm Calm - 0.01 in Rain Light Rain
4:44 PM 33.8 °F - 32.0 °F 93% 30.03 in 3.0 mi Calm Calm - 0.01 in Rain Light Rain
4:53 PM 34.0 °F - 32.0 °F 92% 30.05 in 3.0 mi Calm Calm - 0.02 in Rain Light Rain
5:53 PM 34.0 °F 31.0 °F 32.0 °F 92% 30.06 in 6.0 mi North 3.5 mph - 0.02 in Snow Light Snow
6:06 PM 33.8 °F 28.6 °F 32.0 °F 93% 30.05 in 5.0 mi NNE 5.8 mph - 0.01 in Snow Light Snow
6:53 PM 33.1 °F 30.0 °F 30.9 °F 92% 30.06 in 1.8 mi ENE 3.5 mph - 0.05 in Snow Light Snow
7:53 PM 33.1 °F 28.7 °F 30.9 °F 92% 30.07 in 6.0 mi NE 4.6 mph - 0.03 in Snow Light Snow
8:53 PM 34.0 °F 29.8 °F 32.0 °F 92% 30.09 in 8.0 mi NNE 4.6 mph - 0.04 in Rain Light Rain
9:53 PM 34.0 °F 29.8 °F 33.1 °F 96% 30.09 in 8.0 mi NNE 4.6 mph - 0.02 in Rain Light Rain
10:53 PM 34.0 °F - 33.1 °F 96% 30.10 in 3.0 mi Calm Calm - 0.03 in Rain Light Rain
11:04 PM 35.6 °F - 33.8 °F 93% 30.09 in 3.0 mi Calm Calm - 0.00 in Rain Light Rain
11:14 PM 35.6 °F - 32.0 °F 87% 30.09 in 3.0 mi Calm Calm - 0.01 in Rain Light Rain
11:35 PM 33.8 °F - 33.8 °F 100% 30.09 in 4.0 mi Calm Calm - 0.01 in Rain Light Rain
11:53 PM 35.1 °F - 33.1 °F 92% 30.11 in 3.0 mi Calm Calm - 0.02 in Rain Light Rain